| time (UTC) | temp C | wind direction | speed KPH | gust KPH | rain 1hr cm | rain 24hr cm | rain mn cm | humidity % | barometer mb |
| 20260509223054 | 17 | 325 | 6.4 | 17.7 | 0.00 | 1.37 | 0.86 | 66 | 1004.1 |
| 20260509221602 | 16 | 239 | 3.2 | 16.1 | 0.00 | 1.37 | 0.86 | 68 | 1004.0 |
| 20260509220047 | 16 | 320 | 4.8 | 17.7 | 0.00 | 1.37 | 0.86 | 70 | 1004.2 |
| 20260509214544 | 16 | 231 | 8.0 | 25.7 | 0.00 | 1.37 | 0.86 | 70 | 1004.5 |
| 20260509213042 | 16 | 226 | 3.2 | 14.5 | 0.00 | 1.37 | 0.86 | 74 | 1004.7 |
| 20260509211523 | 16 | 284 | 3.2 | 11.3 | 0.00 | 1.37 | 0.86 | 75 | 1004.8 |
| 20260509210029 | 15 | 258 | 8.0 | 17.7 | 0.00 | 1.37 | 0.86 | 78 | 1004.9 |
| 20260509204600 | 15 | 133 | 3.2 | 14.5 | 0.00 | 1.37 | 0.86 | 81 | 1005.2 |
| 20260509203056 | 14 | 251 | 1.6 | 14.5 | 0.00 | 1.37 | 0.86 | 83 | 1005.4 |
| 20260509201546 | 13 | 257 | 3.2 | 17.7 | 0.00 | 1.37 | 0.86 | 84 | 1005.7 |
| 20260509200037 | 13 | 213 | 3.2 | 14.5 | 0.00 | 1.37 | 0.86 | 85 | 1005.7 |
| 20260509194523 | 13 | 193 | 4.8 | 14.5 | 0.00 | 1.37 | 0.86 | 85 | 1005.9 |
| 20260509191517 | 12 | 185 | 4.8 | 19.3 | 0.00 | 1.37 | 0.86 | 90 | 1006.3 |
| 20260509190014 | 12 | 177 | 1.6 | 11.3 | 0.00 | 1.37 | 0.86 | 91 | 1006.4 |
| 20260509184521 | 11 | 283 | 4.8 | 11.3 | 0.00 | 1.37 | 0.86 | 91 | 1006.4 |
| 20260509183014 | 11 | 285 | 6.4 | 19.3 | 0.00 | 1.37 | 0.86 | 92 | 1006.3 |
| 20260509181510 | 11 | 206 | 1.6 | 6.4 | 0.00 | 1.37 | 0.86 | 92 | 1006.3 |
| 20260509180007 | 11 | 271 | 3.2 | 8.0 | 0.00 | 1.37 | 0.86 | 93 | 1006.2 |
| 20260509174554 | 11 | 301 | 4.8 | 9.7 | 0.00 | 1.37 | 0.86 | 94 | 1006.1 |
| 20260509173053 | 11 | 257 | 8.0 | 19.3 | 0.03 | 1.37 | 0.86 | 94 | 1006.1 |
| 20260509171555 | 11 | 262 | 6.4 | 12.9 | 0.03 | 1.37 | 0.86 | 94 | 1006.1 |
| 20260509170057 | 11 | 278 | 3.2 | 16.1 | 0.05 | 1.37 | 0.86 | 94 | 1006.0 |
| 20260509164551 | 10 | 264 | 8.0 | 17.7 | 0.10 | 1.37 | 0.86 | 94 | 1006.0 |
| 20260509163046 | 10 | 248 | 1.6 | 8.0 | 0.10 | 1.35 | 0.84 | 95 | 1005.9 |
| 20260509161555 | 10 | 248 | 1.6 | 12.9 | 0.13 | 1.35 | 0.84 | 95 | 1005.8 |
| 20260509160044 | 10 | 235 | 0.0 | 16.1 | 0.13 | 1.32 | 0.81 | 95 | 1005.8 |
| 20260509154525 | 10 | 283 | 1.6 | 9.7 | 0.10 | 1.27 | 0.76 | 95 | 1005.9 |
| 20260509153024 | 10 | 235 | 1.6 | 8.0 | 0.08 | 1.24 | 0.71 | 95 | 1005.9 |
| 20260509151512 | 10 | 237 | 1.6 | 8.0 | 0.08 | 1.22 | 0.71 | 95 | 1005.9 |
| 20260509150016 | 10 | 305 | 1.6 | 6.4 | 0.10 | 1.19 | 0.69 | 95 | 1006.1 |
| 20260509144508 | 10 | 255 | 1.6 | 6.4 | 0.08 | 1.17 | 0.66 | 95 | 1006.1 |
| 20260509143007 | 10 | 158 | 1.6 | 9.7 | 0.08 | 1.17 | 0.66 | 95 | 1006.2 |
| 20260509141508 | 9 | 264 | 3.2 | 9.7 | 0.05 | 1.14 | 0.64 | 95 | 1006.3 |
| 20260509140002 | 9 | 281 | 1.6 | 6.4 | 0.00 | 1.09 | 0.58 | 96 | 1006.3 |
| 20260509134628 | 9 | 275 | 3.2 | 9.7 | 0.00 | 1.09 | 0.58 | 96 | 1006.4 |
| 20260509133100 | 9 | 359 | 1.6 | 6.4 | 0.03 | 1.09 | 0.58 | 96 | 1006.5 |
| 20260509131556 | 9 | 288 | 3.2 | 14.5 | 0.03 | 1.09 | 0.58 | 96 | 1006.6 |
| 20260509130052 | 8 | 201 | 1.6 | 8.0 | 0.03 | 1.09 | 0.58 | 96 | 1006.7 |
| 20260509124532 | 8 | 201 | 0.0 | 8.0 | 0.05 | 1.09 | 0.58 | 97 | 1006.8 |
| 20260509123032 | 8 | 208 | 1.6 | 4.8 | 0.03 | 1.07 | 0.56 | 96 | 1006.7 |
| 20260509121630 | 8 | 206 | 1.6 | 3.2 | 0.08 | 1.07 | 0.56 | 96 | 1006.9 |
| 20260509120016 | 8 | 208 | 0.0 | 4.8 | 0.08 | 1.09 | 0.56 | 97 | 1006.9 |
| 20260509114523 | 8 | 208 | 0.0 | 1.6 | 0.10 | 1.07 | 0.53 | 96 | 1007.0 |
| 20260509113013 | 8 | 205 | 0.0 | 3.2 | 0.10 | 1.07 | 0.53 | 96 | 1007.1 |
| 20260509111510 | 8 | 208 | 0.0 | 3.2 | 0.10 | 1.02 | 0.48 | 96 | 1007.3 |
| 20260509110009 | 7 | 208 | 1.6 | 4.8 | 0.13 | 1.02 | 0.48 | 96 | 1007.1 |
| 20260509104507 | 7 | 210 | 0.0 | 3.2 | 0.10 | 0.97 | 0.43 | 96 | 1007.4 |
| 20260509103007 | 7 | 209 | 0.0 | 1.6 | 0.13 | 0.97 | 0.43 | 96 | 1007.5 |
| 20260509101506 | 7 | 208 | 1.6 | 3.2 | 0.13 | 0.91 | 0.38 | 96 | 1007.5 |
| 20260509100054 | 7 | 208 | 0.0 | 3.2 | 0.13 | 0.89 | 0.36 | 96 | 1007.5 |
| 20260509094553 | 7 | 208 | 0.0 | 1.6 | 0.13 | 0.86 | 0.33 | 96 | 1007.4 |
| 20260509093057 | 7 | 208 | 0.0 | 1.6 | 0.10 | 0.84 | 0.30 | 96 | 1007.6 |
| 20260509091554 | 7 | 208 | 0.0 | 3.2 | 0.08 | 0.79 | 0.25 | 96 | 1007.6 |
| 20260509090051 | 7 | 209 | 0.0 | 3.2 | 0.05 | 0.76 | 0.23 | 96 | 1007.6 |
| 20260509084551 | 7 | 208 | 0.0 | 1.6 | 0.03 | 0.71 | 0.20 | 96 | 1007.7 |
| 20260509083049 | 7 | 208 | 1.6 | 3.2 | 0.08 | 0.71 | 0.20 | 96 | 1007.7 |
| 20260509081550 | 7 | 208 | 0.0 | 4.8 | 0.08 | 0.71 | 0.18 | 95 | 1007.8 |
| 20260509080031 | 7 | 201 | 0.0 | 0.0 | 0.08 | 0.71 | 0.18 | 96 | 1007.7 |
| 20260509074528 | 7 | 203 | 0.0 | 1.6 | 0.08 | 0.71 | 0.18 | 95 | 1007.7 |
| 20260509073010 | 7 | 202 | 0.0 | 1.6 | 0.03 | 0.66 | 0.13 | 95 | 1007.9 |
| 20260509071507 | 7 | 201 | 0.0 | 1.6 | 0.03 | 0.64 | 0.10 | 95 | 1008.1 |
| 20260509070049 | 7 | 202 | 0.0 | 1.6 | 0.08 | 0.64 | 0.10 | 95 | 1008.2 |
| 20260509064558 | 7 | 202 | 0.0 | 1.6 | 0.08 | 0.64 | 0.10 | 95 | 1008.3 |
| 20260509063028 | 7 | 202 | 0.0 | 1.6 | 0.08 | 0.64 | 0.10 | 95 | 1008.4 |
| 20260509061527 | 7 | 201 | 0.0 | 3.2 | 0.08 | 0.61 | 0.08 | 95 | 1008.8 |
| 20260509054504 | 7 | 201 | 0.0 | 3.2 | 0.05 | 0.56 | 0.03 | 95 | 1009.6 |
| 20260509053051 | 7 | 202 | 0.0 | 1.6 | 0.05 | 0.56 | 0.03 | 94 | 1009.6 |
| 20260509051551 | 7 | 201 | 0.0 | 3.2 | 0.08 | 0.53 | 0.00 | 94 | 1009.9 |
| 20260509050048 | 7 | 201 | 0.0 | 3.2 | 0.10 | 0.56 | 0.53 | 94 | 1009.9 |
| 20260509044549 | 7 | 203 | 1.6 | 4.8 | 0.10 | 0.53 | 0.51 | 94 | 1010.0 |
| 20260509043055 | 8 | 204 | 0.0 | 1.6 | 0.10 | 0.53 | 0.51 | 94 | 1010.2 |
| 20260509041548 | 8 | 204 | 0.0 | 3.2 | 0.08 | 0.48 | 0.46 | 94 | 1010.4 |
| 20260509040047 | 8 | 204 | 0.0 | 4.8 | 0.08 | 0.46 | 0.43 | 94 | 1010.4 |
| 20260509034552 | 8 | 204 | 0.0 | 3.2 | 0.08 | 0.43 | 0.41 | 94 | 1010.3 |
| 20260509033029 | 8 | 204 | 0.0 | 3.2 | 0.10 | 0.43 | 0.41 | 94 | 1010.3 |
| 20260509031530 | 8 | 203 | 0.0 | 3.2 | 0.10 | 0.41 | 0.38 | 94 | 1010.3 |
| 20260509030021 | 8 | 204 | 0.0 | 4.8 | 0.08 | 0.38 | 0.36 | 93 | 1010.2 |
| 20260509024517 | 8 | 234 | 0.0 | 3.2 | 0.08 | 0.36 | 0.33 | 93 | 1010.6 |
| 20260509023017 | 8 | 233 | 1.6 | 3.2 | 0.08 | 0.33 | 0.30 | 93 | 1010.6 |
| 20260509021520 | 8 | 235 | 0.0 | 1.6 | 0.10 | 0.30 | 0.28 | 93 | 1010.4 |
| 20260509020015 | 8 | 233 | 0.0 | 3.2 | 0.15 | 0.28 | 0.25 | 92 | 1010.4 |
| 20260509014515 | 8 | 234 | 0.0 | 3.2 | 0.20 | 0.28 | 0.25 | 91 | 1010.5 |
| 20260509013016 | 9 | 234 | 0.0 | 3.2 | 0.20 | 0.25 | 0.23 | 91 | 1010.6 |
| 20260509011514 | 9 | 234 | 0.0 | 3.2 | 0.15 | 0.20 | 0.18 | 89 | 1010.5 |
| 20260509010101 | 10 | 235 | 0.0 | 8.0 | 0.08 | 0.15 | 0.10 | 85 | 1010.1 |
| 20260509004619 | 10 | 225 | 0.0 | 6.4 | 0.03 | 0.10 | 0.05 | 84 | 1009.9 |
| 20260509003037 | 10 | 222 | 0.0 | 4.8 | 0.00 | 0.08 | 0.03 | 82 | 1009.6 |
| 20260509001545 | 10 | 224 | 0.0 | 4.8 | 0.00 | 0.08 | 0.03 | 82 | 1009.6 |
| 20260509000024 | 10 | 222 | 1.6 | 6.4 | 0.00 | 0.08 | 0.03 | 82 | 1009.5 |
| 20260508234527 | 10 | 222 | 1.6 | 6.4 | 0.00 | 0.08 | 0.03 | 82 | 1009.4 |
| 20260508233024 | 11 | 262 | 0.0 | 12.9 | 0.00 | 0.08 | 0.03 | 81 | 1009.4 |
| 20260508231523 | 11 | 273 | 3.2 | 14.5 | 0.00 | 0.08 | 0.03 | 80 | 1009.3 |
| 20260508230023 | 11 | 147 | 6.4 | 14.5 | 0.00 | 0.08 | 0.03 | 76 | 1009.2 |
| 20260508224622 | 12 | 205 | 9.7 | 16.1 | 0.00 | 0.08 | 0.03 | 74 | 1009.0 |